Powrót do katalogu

STARLINK-30971

AktywnyŁącznośćVLEO
NORAD 58443·PAYLOAD·🇺🇸 United States

Wystrzelony Nov 28, 2023 z Cape Canaveral Space Force Station

Loading…

Następne Przeloty (najbliższe 24 godziny)

TLE

ŚwieżeSource: CelesTrak SupGP

Epoka: Sep 14, 2026, 22:20 UTC

1 58443C 23183G   26257.93104167  .00056399  00000+0  20423-2 0  2575
2 58443  43.0028  53.2510 0001549 276.8962  23.9182 15.27558493    13

Śledź STARLINK-30971 w czasie rzeczywistym z AllMySat

Download on the App Store